Flag for India Weather past 2 weeks in Gurdaspur, Punjab, India

Now
93 °F

Haze.


Feels Like: 101 °F
Forecast: 76 / 97 °F
Wind: No wind

Location: Amritsar Airport

Current Time: Sep 4, 2015 at 6:21:16 PM

Latest Report: Sep 4, 2015 at 5:30 PM


Visibility: 3 mi

Pressure: 29.77 "Hg

Humidity: 49%

Dew point: 72 °F

Location of GurdaspurLocation

Historic Weather in Gurdaspur — Graph

°F

Gurdaspur temperature yesterday

Maximum temperature yesterday: 95 °F (at 2:00 PM)
Minimum temperature yesterday: 79 °F (at 4:30 AM)
Average temperature yesterday: 86 °F

Past Weeks' High & Low Weather Summary

 TemperatureHumidityPressure
High99 °F (Sep 2, 2:30 PM)100% (Aug 21, 2:30 AM)29.86 "Hg (Aug 21, 2:30 AM)
Low75 °F (Aug 21, 5:00 PM)44% (Aug 29, 1:30 PM)29.53 "Hg (Aug 20, 5:00 PM)
Average86 °F79%29.62 "Hg
* Reported Aug 20 5:00 PM — Sep 4 5:00 PM, Gurdaspur, Weather by CustomWeather, © 2015

Note: Actual official high and low records may vary slightly from our data, if they occured in-between our weather recording intervals... More about our weather records

Advertising

Gurdaspur weather history for previous 24 hours

 ConditionsComfort  
Time TempWeatherWind HumidityBarometerVisibility
5:00 PM
Fri, Sep 4
93 °FHaze.3 mph49%29.77 "Hg3 mi
4:30 PM93 °FHaze.3 mph53%29.77 "Hg3 mi
4:00 PM93 °FHaze.2 mph49%29.77 "Hg3 mi
3:30 PM93 °FHaze.5 mph49%29.80 "Hg3 mi
3:00 PM95 °FHaze.6 mph47%29.80 "Hg3 mi
2:30 PM95 °FHaze.6 mph53%29.80 "Hg3 mi
1:30 PM93 °FHaze.5 mph56%29.83 "Hg3 mi
1:00 PM93 °FHaze.6 mph53%29.83 "Hg3 mi
12:30 PM93 °FHaze.7 mph56%29.83 "Hg3 mi
12:00 PM91 °FHaze.5 mph59%29.83 "Hg2 mi
11:30 AM91 °FHaze.3 mph56%29.83 "Hg2 mi
11:00 AM91 °FHaze.3 mph56%29.86 "Hg2 mi
10:30 AM90 °FHaze.2 mph63%29.86 "Hg2 mi
10:00 AM90 °FHaze.1 mph63%29.86 "Hg2 mi
8:30 AM84 °FFog.No wind79%29.83 "Hg1 mi
8:00 AM82 °FFog.No wind84%29.83 "Hg1 mi
7:30 AM81 °FFog.No wind94%29.83 "Hg2 mi
7:00 AM79 °FFog.No wind94%29.83 "Hg2 mi
6:30 AM77 °FFog.No wind94%29.80 "Hg2 mi
6:00 AM79 °FFog.No wind89%29.80 "Hg2 mi
5:30 AM79 °FFog.No wind89%29.80 "Hg2 mi
5:00 AM79 °FFog.No wind84%29.77 "Hg2 mi
4:30 AM79 °FFog.No wind84%29.77 "Hg2 mi
4:00 AM81 °FFog.No wind79%29.77 "Hg2 mi
3:30 AM81 °FFog.No wind84%29.77 "Hg2 mi
1:00 AM82 °FFog.No wind89%29.77 "Hg2 mi
12:30 AM82 °FFog.No wind89%29.77 "Hg2 mi
12:00 AM82 °FFog.No wind89%29.77 "Hg2 mi
11:30 PM
Thu, Sep 3
84 °FFog.No wind84%29.77 "Hg2 mi
11:00 PM84 °FFog.No wind84%29.77 "Hg2 mi
10:30 PM84 °FFog.No wind84%29.74 "Hg2 mi
10:00 PM84 °FFog.No wind89%29.74 "Hg2 mi
9:30 PM84 °FFog.No wind89%29.74 "Hg2 mi
9:00 PM84 °FFog.No wind89%29.74 "Hg2 mi
8:30 PM86 °FFog.No wind84%29.71 "Hg2 mi
8:00 PM86 °FFog.No wind75%29.71 "Hg2 mi
7:30 PM88 °FFog.No wind70%29.71 "Hg2 mi
7:00 PM88 °FFog.No wind75%29.71 "Hg2 mi
6:30 PM88 °FHaze.3 mph75%29.71 "Hg2 mi
6:00 PM90 °FScattered clouds.6 mph71%29.68 "Hg2 mi
Weather by CustomWeather, © 2015

See weather overviewHow to use our weather pages